Home   Weather   Pirmasens   Past weeks

Flag for Germany Past Weather in Pirmasens, Rhineland-Palatinate, Germany — Yesterday and Last 2 Weeks

Now
25 °F

Ice fog.


Feels Like: 25 °F
Forecast: 34 / 43 °F
Wind: No wind

Location: Ramstein

Current Time: Dec 10, 2016 at 8:09:39 am

Latest Report: Dec 10, 2016 at 6:58 am


Visibility: 5 mi

Pressure: 30.37 "Hg

Humidity: 100%

Dew Point: 25 °F

Location of PirmasensLocation

Past Weather in Pirmasens — Graph

°F

Pirmasens Temperature Yesterday

Maximum temperature yesterday: 43 °F (at 2:58 pm)
Minimum temperature yesterday: 23 °F (at 2:58 am)
Average temperature yesterday: 33 °F

High & Low Weather Summary for the Past Weeks

 TemperatureHumidityPressure
High47 °F (Nov 25, 12:58 pm)100% (Nov 26, 8:58 pm)30.62 "Hg (Nov 26, 8:58 pm)
Low14 °F (Nov 30, 7:58 am)53% (Nov 29, 1:58 pm)29.99 "Hg (Nov 25, 9:02 am)
Average32 °F91%30.36 "Hg
* Reported Nov 25 6:58 am — Dec 10 6:58 am, Pirmasens, Weather by CustomWeather, © 2016

Note: Actual official high and low records may vary slightly from our data, if they occured in-between our weather recording intervals... More about our weather records

Advertising

Pirmasens Weather History for the Previous 24 Hours

Scroll right to see more
 ConditionsComfort  
Time TempWeatherWind HumidityBarometerVisibility
6:58 am
Sat, Dec 10
25 °FIce fog.No wind100%30.37 "Hg5 mi
5:58 am26 °FIce fog.No wind98%30.37 "Hg5 mi
4:58 am27 °FIce fog.No wind100%30.39 "Hg0 mi
3:58 am25 °FIce fog.No wind99%30.39 "Hg1 mi
2:58 am28 °FIce fog.No wind98%30.40 "Hg2 mi
1:58 am27 °FIce fog.No wind99%30.42 "Hg1 mi
12:58 am29 °FIce fog.No wind98%30.42 "Hg2 mi
11:58 pm
Fri, Dec 9
29 °FIce fog.No wind98%30.44 "Hg5 mi
10:58 pm30 °FIce fog.No wind93%30.45 "Hg4 mi
9:58 pm29 °FIce fog.No wind99%30.46 "Hg4 mi
8:58 pm30 °FPassing clouds.No wind100%30.47 "HgN/A
7:58 pm33 °FPassing clouds.No wind99%30.47 "HgN/A
6:58 pm36 °FPassing clouds.No wind100%30.48 "HgN/A
5:58 pm40 °FMostly cloudy.No wind87%30.48 "HgN/A
4:58 pm41 °FOvercast.No wind85%30.49 "HgN/A
3:58 pm43 °FOvercast.No wind76%30.49 "HgN/A
2:58 pm43 °FOvercast.No wind75%30.49 "HgN/A
1:58 pm42 °FPartly sunny.3 mph77%30.50 "HgN/A
12:58 pm42 °FPartly sunny.3 mph77%30.51 "HgN/A
12:02 pm41 °FMostly cloudy.3 mph81%30.46 "HgN/A
10:58 am37 °FOvercast.No wind90%30.52 "HgN/A
9:58 am35 °FOvercast.No wind95%30.51 "HgN/A
8:58 am33 °FOvercast.3 mph99%30.52 "HgN/A
Weather by CustomWeather, © 2016

See weather overviewHow to use our weather pages